TimeEDT,TemperatureF,Dew PointF,Humidity,Sea Level PressureIn,VisibilityMPH,Wind Direction,Wind SpeedMPH,Gust SpeedMPH,PrecipitationIn,Events,Conditions,WindDirDegrees,DateUTC
12:53 AM,73.9,71.1,91,30.09,10.0,NE,4.6,-,N/A,,Partly Cloudy,50,2013-08-20 04:53:00
1:53 AM,75.0,72.0,90,30.08,10.0,Calm,Calm,-,N/A,,Clear,0,2013-08-20 05:53:00
2:53 AM,73.9,72.0,93,30.07,10.0,Calm,Calm,-,N/A,,Clear,0,2013-08-20 06:53:00
3:53 AM,73.9,72.0,93,30.06,10.0,Calm,Calm,-,N/A,,Scattered Clouds,0,2013-08-20 07:53:00
4:53 AM,73.9,72.0,93,30.06,10.0,Calm,Calm,-,N/A,,Clear,0,2013-08-20 08:53:00
5:53 AM,73.9,72.0,93,30.07,10.0,Calm,Calm,-,N/A,,Scattered Clouds,0,2013-08-20 09:53:00
6:53 AM,75.0,73.0,94,30.08,10.0,ENE,8.1,-,N/A,,Scattered Clouds,70,2013-08-20 10:53:00
7:53 AM,75.9,73.9,94,30.09,10.0,East,3.5,-,N/A,,Scattered Clouds,80,2013-08-20 11:53:00
8:45 AM,80.6,73.4,79,30.10,10.0,East,4.6,-,N/A,,Partly Cloudy,100,2013-08-20 12:45:00
8:53 AM,81.0,73.9,79,30.10,10.0,East,4.6,-,N/A,,Scattered Clouds,90,2013-08-20 12:53:00
9:53 AM,84.9,75.0,72,30.12,10.0,East,3.5,-,N/A,,Scattered Clouds,80,2013-08-20 13:53:00
10:53 AM,86.0,73.9,67,30.13,10.0,South,5.8,-,N/A,,Scattered Clouds,190,2013-08-20 14:53:00
11:53 AM,88.0,75.0,65,30.14,10.0,East,6.9,-,N/A,,Mostly Cloudy,100,2013-08-20 15:53:00
12:53 PM,84.0,75.0,74,30.13,10.0,NE,9.2,-,0.00,Rain,Light Rain,40,2013-08-20 16:53:00
1:28 PM,87.8,75.2,66,30.13,10.0,NNE,5.8,-,0.00,Thunderstorm,Thunderstorm,30,2013-08-20 17:28:00
1:53 PM,90.0,75.9,63,30.12,10.0,NNE,6.9,-,0.00,Thunderstorm,Thunderstorm,20,2013-08-20 17:53:00
2:08 PM,89.6,71.6,55,30.11,10.0,Variable,3.5,-,N/A,,Mostly Cloudy,0,2013-08-20 18:08:00
2:33 PM,89.6,71.6,55,30.11,10.0,South,8.1,-,N/A,Thunderstorm,Thunderstorm,190,2013-08-20 18:33:00
2:53 PM,89.1,75.0,63,30.11,10.0,North,5.8,-,N/A,Thunderstorm,Thunderstorm,10,2013-08-20 18:53:00
3:11 PM,86.0,73.4,66,30.11,10.0,WNW,12.7,-,N/A,,Mostly Cloudy,290,2013-08-20 19:11:00
3:18 PM,86.0,73.4,66,30.10,10.0,WNW,8.1,-,N/A,,Mostly Cloudy,290,2013-08-20 19:18:00
3:21 PM,86.0,73.4,66,30.11,10.0,NW,9.2,-,N/A,Thunderstorm,Thunderstorm,310,2013-08-20 19:21:00
3:38 PM,82.4,71.6,70,30.11,10.0,North,12.7,-,N/A,Thunderstorm,Thunderstorm,350,2013-08-20 19:38:00
3:53 PM,80.1,73.9,81,30.10,7.0,NNE,10.4,-,0.01,Rain-Thunderstorm,Thunderstorms and Rain,20,2013-08-20 19:53:00
4:07 PM,82.4,75.2,79,30.09,10.0,East,4.6,-,0.00,,Mostly Cloudy,90,2013-08-20 20:07:00
4:53 PM,84.9,73.9,69,30.09,10.0,Calm,Calm,-,0.00,,Mostly Cloudy,0,2013-08-20 20:53:00
5:53 PM,84.9,73.9,69,30.09,10.0,NNE,5.8,-,N/A,,Mostly Cloudy,20,2013-08-20 21:53:00
6:53 PM,82.0,77.0,85,30.10,8.0,North,4.6,-,0.01,Rain,Light Rain,360,2013-08-20 22:53:00
7:53 PM,81.0,77.0,88,30.11,10.0,Calm,Calm,-,0.03,,Mostly Cloudy,0,2013-08-20 23:53:00
8:53 PM,81.0,75.9,85,30.13,10.0,Calm,Calm,-,N/A,,Mostly Cloudy,0,2013-08-21 00:53:00
9:53 PM,80.1,75.0,85,30.14,10.0,SE,3.5,-,N/A,,Scattered Clouds,130,2013-08-21 01:53:00
10:53 PM,79.0,75.9,90,30.16,10.0,Calm,Calm,-,N/A,,Scattered Clouds,0,2013-08-21 02:53:00
11:53 PM,78.1,75.0,90,30.16,10.0,Calm,Calm,-,N/A,,Scattered Clouds,0,2013-08-21 03:53:00